Find Kosmos-1610

NORAD ID: 15398 Int'l Des: 1984-118 Owner: VMF Country: SU operational
LEOCIRCULARPOLAR

Live-Position

3D-Globus wird geladen...

Über Kosmos-1610

Beschreibung wird geladen...

Nächste Überflüge

Passes for default location (London). Set your location on the main map for personalized predictions.

Höhenverlauf

Loading altitude history...

Zweizeiliger Elementsatz

1 15398U 84118A 26107.13435912 .00000065 00000-0 52968-4 0 9997
2 15398 82.9517 178.6073 0030634 311.0147 72.7439 13.73953190 76494
Epoch: 17. Apr. 2026 • Age: 12 hours

Aktueller Status

Höhe 995.7 km
Geschwindigkeit 7.36 km/s
Subsatellitenpunkt -82.43°S, 40.85°E
Startdatum 15. Nov. 1984
Alter 41.4 years
Typ other

Technische Details

Klassifizierung Payload
Masse 800.00 kg
Trockenmasse 800.00 kg
Gesamtmasse 800.00 kg
Länge 5.00 m
Durchmesser 2.10 m
Spannweite 17.00 m
Form Cyl + Ant
Hersteller OAZ
Bus-Typ KAUR-1 11F627
Phasenstatus In Orbit
Besitzer/Staat VMF/SU

Most Searched